• In Netherlands
  • List of Countries
  • For 7 days
  • Water Temperature
  • Satellite Maps
  • Weather Map
  • Weather Widgets
  • user-avatar
    Login

    Hourly Weather Rawson

    Today, 23 July, Sunday

    Time Temperature Precipitation Wind Pressure Humidity
    00:00 +11°C° 0 mm 11 mps 748 mmHg 41%
    01:00 +9°C° 0 mm 11 mps 748 mmHg 40%
    02:00 +9°C° 0 mm 11 mps 748 mmHg 39%
    03:00 +9°C° 0 mm 12 mps 748 mmHg 40%
    04:00 +9°C° 0 mm 14 mps 748 mmHg 42%
    05:00 +9°C° 0 mm 15 mps 749 mmHg 43%
    06:00 +8°C° 0 mm 14 mps 750 mmHg 45%
    07:00 +8°C° 0 mm 13 mps 750 mmHg 46%
    08:00 +7°C° 0 mm 13 mps 751 mmHg 47%
    09:00 +8°C° 0 mm 13 mps 752 mmHg 45%
    10:00 +9°C° 0 mm 13 mps 753 mmHg 42%
    11:00 +12°C° 0 mm 14 mps 754 mmHg 39%
    12:00 +12°C° 0 mm 13 mps 754 mmHg 36%
    13:00 +12°C° 0 mm 12 mps 754 mmHg 33%
    14:00 +13°C° 0 mm 11 mps 755 mmHg 29%
    15:00 +12°C° 0 mm 8 mps 755 mmHg 31%
    16:00 +13°C° 0 mm 6 mps 756 mmHg 33%
    17:00 +12°C° 0 mm 4 mps 756 mmHg 35%
    18:00 +11°C° 0 mm 4 mps 757 mmHg 37%
    19:00 +10°C° 0 mm 5 mps 757 mmHg 40%
    20:00 +9°C° 0 mm 5 mps 758 mmHg 42%
    21:00 +9°C° 0 mm 5 mps 758 mmHg 43%
    22:00 +8°C° 0 mm 5 mps 758 mmHg 43%
    23:00 +8°C° 0 mm 6 mps 758 mmHg 44%

    Tomorrow, 24 July, Monday

    Time Temperature Precipitation Wind Pressure Humidity
    00:00 +7°C° 0 mm 6 mps 758 mmHg 46%
    01:00 +7°C° 0 mm 6 mps 757 mmHg 48%
    02:00 +6°C° 0 mm 7 mps 757 mmHg 50%
    03:00 +6°C° 0 mm 7 mps 757 mmHg 52%
    04:00 +5°C° 0 mm 7 mps 756 mmHg 53%
    05:00 +5°C° 0 mm 7 mps 755 mmHg 54%
    06:00 +6°C° 0 mm 9 mps 755 mmHg 51%
    07:00 +6°C° 0 mm 10 mps 755 mmHg 48%
    08:00 +7°C° 0 mm 11 mps 755 mmHg 44%
    09:00 +8°C° 0 mm 12 mps 756 mmHg 41%
    10:00 +9°C° 0 mm 13 mps 756 mmHg 37%
    11:00 +10°C° 0 mm 14 mps 757 mmHg 33%
    12:00 +10°C° 0 mm 13 mps 757 mmHg 31%
    13:00 +12°C° 0 mm 12 mps 758 mmHg 29%
    14:00 +12°C° 0 mm 11 mps 758 mmHg 27%
    15:00 +11°C° 0 mm 9 mps 759 mmHg 28%
    16:00 +11°C° 0 mm 7 mps 760 mmHg 30%
    17:00 +10°C° 0 mm 6 mps 760 mmHg 31%
    18:00 +9°C° 0 mm 5 mps 761 mmHg 34%
    19:00 +9°C° 0 mm 5 mps 762 mmHg 36%
    20:00 +8°C° 0 mm 4 mps 762 mmHg 38%
    21:00 +8°C° 0 mm 5 mps 762 mmHg 39%
    22:00 +7°C° 0 mm 5 mps 763 mmHg 40%
    23:00 +7°C° 0 mm 6 mps 763 mmHg 40%

    Day after tomorrow, 25 July, Tuesday

    Time Temperature Precipitation Wind Pressure Humidity
    00:00 +7°C° 0 mm 5 mps 763 mmHg 41%
    01:00 +7°C° 0 mm 5 mps 763 mmHg 42%
    02:00 +6°C° 0 mm 5 mps 763 mmHg 42%
    03:00 +6°C° 0 mm 5 mps 763 mmHg 46%
    04:00 +5°C° 0 mm 5 mps 763 mmHg 49%
    05:00 +5°C° 0 mm 5 mps 762 mmHg 52%
    06:00 +5°C° 0 mm 5 mps 762 mmHg 54%
    07:00 +3°C° 0 mm 5 mps 763 mmHg 56%
    08:00 +3°C° 0 mm 5 mps 763 mmHg 58%
    09:00 +6°C° 0 mm 5 mps 763 mmHg 52%
    10:00 +8°C° 0 mm 5 mps 763 mmHg 47%
    11:00 +11°C° 0 mm 6 mps 763 mmHg 42%
    12:00 +13°C° 0 mm 6 mps 762 mmHg 39%
    13:00 +14°C° 0 mm 6 mps 762 mmHg 36%
    14:00 +16°C° 0 mm 6 mps 761 mmHg 32%
    15:00 +15°C° 0 mm 6 mps 761 mmHg 35%
    16:00 +15°C° 0 mm 6 mps 761 mmHg 38%
    17:00 +14°C° 0 mm 6 mps 761 mmHg 41%
    18:00 +14°C° 0 mm 7 mps 761 mmHg 43%
    19:00 +12°C° 0 mm 8 mps 761 mmHg 46%
    20:00 +11°C° 0 mm 9 mps 761 mmHg 49%
    21:00 +11°C° 0 mm 9 mps 761 mmHg 51%
    22:00 +11°C° 0 mm 9 mps 761 mmHg 53%
    23:00 +10°C° 0 mm 9 mps 761 mmHg 55%

    26 July, Wednesday

    Time Temperature Precipitation Wind Pressure Humidity
    00:00 +10°C° 0 mm 8 mps 761 mmHg 56%
    01:00 +10°C° 0 mm 8 mps 760 mmHg 57%
    02:00 +9°C° 0 mm 8 mps 760 mmHg 58%
    03:00 +9°C° 0 mm 7 mps 759 mmHg 60%
    04:00 +9°C° 0 mm 7 mps 759 mmHg 61%
    05:00 +8°C° 0 mm 7 mps 759 mmHg 63%
    06:00 +8°C° 0 mm 7 mps 758 mmHg 64%
    07:00 +8°C° 0 mm 7 mps 758 mmHg 66%
    08:00 +8°C° 0 mm 7 mps 758 mmHg 67%
    09:00 +10°C° 0 mm 8 mps 758 mmHg 56%
    10:00 +11°C° 0 mm 8 mps 758 mmHg 44%
    11:00 +13°C° 0 mm 9 mps 757 mmHg 32%
    12:00 +16°C° 0 mm 8 mps 756 mmHg 30%
    13:00 +17°C° 0 mm 8 mps 756 mmHg 28%
    14:00 +18°C° 0 mm 8 mps 755 mmHg 26%
    15:00 +18°C° 0 mm 8 mps 755 mmHg 27%
    16:00 +17°C° 0 mm 7 mps 754 mmHg 29%
    17:00 +16°C° 0 mm 7 mps 754 mmHg 31%
    18:00 +16°C° 0 mm 8 mps 754 mmHg 32%
    19:00 +15°C° 0 mm 9 mps 754 mmHg 33%
    20:00 +13°C° 0 mm 9 mps 754 mmHg 33%
    21:00 +13°C° 0 mm 10 mps 754 mmHg 35%
    22:00 +13°C° 0 mm 11 mps 753 mmHg 38%
    23:00 +13°C° 0 mm 12 mps 753 mmHg 40%

    27 July, Thursday

    Time Temperature Precipitation Wind Pressure Humidity
    00:00 +13°C° 0 mm 12 mps 753 mmHg 40%
    01:00 +13°C° 0 mm 11 mps 753 mmHg 40%
    02:00 +13°C° 0 mm 11 mps 753 mmHg 40%
    03:00 +12°C° 0 mm 11 mps 753 mmHg 38%
    04:00 +12°C° 0 mm 10 mps 753 mmHg 36%
    05:00 +11°C° 0 mm 9 mps 753 mmHg 34%
    06:00 +11°C° 0 mm 9 mps 753 mmHg 35%
    07:00 +11°C° 0 mm 8 mps 753 mmHg 36%
    08:00 +11°C° 0 mm 8 mps 753 mmHg 37%
    09:00 +12°C° 0 mm 9 mps 753 mmHg 36%
    10:00 +15°C° 0 mm 9 mps 753 mmHg 36%
    11:00 +17°C° 0 mm 10 mps 753 mmHg 35%
    12:00 +18°C° 0 mm 11 mps 752 mmHg 34%
    13:00 +18°C° 0 mm 11 mps 752 mmHg 34%
    14:00 +19°C° 0 mm 11 mps 751 mmHg 33%
    15:00 +19°C° 0 mm 10 mps 751 mmHg 36%
    16:00 +18°C° 0 mm 8 mps 751 mmHg 38%
    17:00 +17°C° 0 mm 6 mps 751 mmHg 41%
    18:00 +16°C° 0 mm 7 mps 751 mmHg 41%
    19:00 +16°C° 0 mm 8 mps 752 mmHg 41%
    20:00 +15°C° 0 mm 8 mps 752 mmHg 41%
    21:00 +13°C° 0 mm 8 mps 753 mmHg 42%
    22:00 +13°C° 0 mm 8 mps 753 mmHg 43%
    23:00 +12°C° 0 mm 8 mps 754 mmHg 43%

    28 July, Friday

    Time Temperature Precipitation Wind Pressure Humidity
    00:00 +11°C° 0 mm 8 mps 755 mmHg 45%
    01:00 +10°C° 0 mm 7 mps 755 mmHg 47%
    02:00 +9°C° 0 mm 7 mps 756 mmHg 49%
    03:00 +6°C° 0 mm 7 mps 757 mmHg 49%
    04:00 +5°C° 0 mm 7 mps 758 mmHg 48%
    05:00 +4°C° 0 mm 7 mps 759 mmHg 47%
    06:00 +4°C° 0 mm 7 mps 759 mmHg 48%
    07:00 +4°C° 0 mm 7 mps 760 mmHg 50%
    08:00 +3°C° 0 mm 7 mps 761 mmHg 51%
    09:00 +4°C° 0 mm 8 mps 761 mmHg 44%
    10:00 +6°C° 0 mm 9 mps 762 mmHg 38%
    11:00 +7°C° 0 mm 9 mps 762 mmHg 32%
    12:00 +7°C° 0 mm 9 mps 763 mmHg 30%
    13:00 +9°C° 0 mm 8 mps 763 mmHg 29%
    14:00 +9°C° 0 mm 7 mps 763 mmHg 28%
    15:00 +9°C° 0 mm 6 mps 763 mmHg 29%
    16:00 +8°C° 0 mm 5 mps 764 mmHg 31%
    17:00 +8°C° 0 mm 4 mps 764 mmHg 32%
    18:00 +7°C° 0 mm 4 mps 764 mmHg 35%
    19:00 +7°C° 0 mm 3 mps 765 mmHg 37%
    20:00 +6°C° 0 mm 2 mps 765 mmHg 40%
    21:00 +6°C° 0 mm 2 mps 766 mmHg 42%
    22:00 +6°C° 0 mm 2 mps 766 mmHg 44%
    23:00 +6°C° 0 mm 1 mps 767 mmHg 46%
    Show more